RYR5XY LFMU-EGGW

Flight info

Callsign RYR5XY
Flight time 1h 49m
Altitude 38000
Route FJR DCT NG DCT MOLEN DCT MTL DCT ETREK DCT MADOT DCT MOPEM DCT CACHI DCT AVLON DCT OKRIX DCT BRY DCT CLM DCT KOPOR DCT PIREG DCT SOSUN DCT SUBIP UM733 UNDUG
Aircraft B738/M-SDE2E3FGHIRWXY/LB1

Departure

Time 2026-04-27 15:35
Airport Béziers Vias airport (LFMU)

Arrival

Time 2026-04-27 17:24
Airport London Luton Airport (EGGW)
Time Latitude Longitude Altitude Speed Heading
2026-04-27 15:15 43.32150 3.35303 55 ft 0 kts 127°
2026-04-27 15:30 43.32149 3.35305 58 ft 1 kts 124°
2026-04-27 15:30 43.32144 3.35318 52 ft 2 kts 116°
2026-04-27 15:30 43.32148 3.35333 55 ft 2 kts 53°
2026-04-27 15:31 43.32162 3.35334 50 ft 3 kts 350°
2026-04-27 15:31 43.32205 3.35325 56 ft 11 kts 359°
2026-04-27 15:31 43.32312 3.35330 56 ft 20 kts 350°
2026-04-27 15:31 43.32355 3.35164 52 ft 21 kts 272°
2026-04-27 15:32 43.32365 3.34969 56 ft 20 kts 276°
2026-04-27 15:32 43.32376 3.34780 56 ft 20 kts 275°
2026-04-27 15:32 43.32386 3.34598 58 ft 19 kts 274°
2026-04-27 15:32 43.32396 3.34421 55 ft 18 kts 275°
2026-04-27 15:33 43.32400 3.34273 61 ft 13 kts 254°
2026-04-27 15:33 43.32389 3.34186 55 ft 7 kts 330°
2026-04-27 15:33 43.32406 3.34214 59 ft 5 kts 93°
2026-04-27 15:33 43.32405 3.34245 61 ft 0 kts 93°
2026-04-27 15:34 43.32404 3.34268 61 ft 8 kts 94°
2026-04-27 15:34 43.32382 3.34609 58 ft 75 kts 94°
2026-04-27 15:34 43.32323 3.35669 49 ft 145 kts 96°
2026-04-27 15:35 43.32259 3.37271 372 ft 180 kts 97°
2026-04-27 15:35 43.32159 3.39034 1127 ft 189 kts 99°
2026-04-27 15:35 43.32221 3.40891 1806 ft 211 kts 70°
2026-04-27 15:35 43.33150 3.42609 2080 ft 239 kts 46°
2026-04-27 15:36 43.34362 3.44287 2471 ft 259 kts 46°
2026-04-27 15:36 43.35627 3.46114 3193 ft 267 kts 47°
2026-04-27 15:36 43.36873 3.47972 4250 ft 264 kts 47°
2026-04-27 15:36 43.38111 3.49861 5192 ft 268 kts 47°
2026-04-27 15:37 43.39359 3.51797 6056 ft 272 kts 47°
2026-04-27 15:37 43.40610 3.53761 6976 ft 274 kts 46°
2026-04-27 15:37 43.41854 3.55725 7800 ft 278 kts 47°
2026-04-27 15:37 43.43131 3.57742 8666 ft 281 kts 46°
2026-04-27 15:38 43.44349 3.59859 9532 ft 286 kts 57°
2026-04-27 15:38 43.45277 3.62303 10356 ft 291 kts 62°
2026-04-27 15:38 43.46184 3.64898 10706 ft 313 kts 62°
2026-04-27 15:38 43.47159 3.67700 10887 ft 338 kts 62°
2026-04-27 15:39 43.48219 3.70717 11072 ft 361 kts 63°
2026-04-27 15:39 43.49356 3.73924 11232 ft 383 kts 63°
2026-04-27 15:39 43.50557 3.77290 11549 ft 398 kts 63°
2026-04-27 15:39 43.51792 3.80736 12112 ft 404 kts 62°
2026-04-27 15:40 43.53041 3.84217 12765 ft 407 kts 63°
2026-04-27 15:40 43.54305 3.87739 13328 ft 413 kts 63°
2026-04-27 15:40 43.55584 3.91303 13932 ft 417 kts 64°
2026-04-27 15:40 43.56874 3.94904 14514 ft 420 kts 64°
2026-04-27 15:41 43.58284 3.98464 15012 ft 425 kts 54°
2026-04-27 15:41 43.60184 4.01579 15610 ft 426 kts 47°
2026-04-27 15:41 43.62222 4.04594 16119 ft 431 kts 46°
2026-04-27 15:41 43.64270 4.07605 16821 ft 430 kts 46°
2026-04-27 15:42 43.66315 4.10648 17321 ft 435 kts 47°
2026-04-27 15:42 43.68362 4.13747 17841 ft 439 kts 47°
2026-04-27 15:42 43.70420 4.16899 18297 ft 444 kts 47°
2026-04-27 15:42 43.72483 4.20084 18810 ft 445 kts 47°
2026-04-27 15:43 43.74545 4.23278 19301 ft 447 kts 47°
2026-04-27 15:43 43.76620 4.26495 19771 ft 449 kts 48°
2026-04-27 15:43 43.78710 4.29737 20162 ft 454 kts 48°
2026-04-27 15:43 43.80815 4.33002 20603 ft 457 kts 47°
2026-04-27 15:44 43.82944 4.36296 20979 ft 461 kts 46°
2026-04-27 15:44 43.85299 4.39316 21352 ft 463 kts 36°
2026-04-27 15:44 43.87990 4.41771 21817 ft 463 kts 28°
2026-04-27 15:44 43.90920 4.43632 22195 ft 465 kts 20°
2026-04-27 15:45 43.93956 4.45208 22551 ft 467 kts 19°
2026-04-27 15:45 43.97021 4.46770 22867 ft 471 kts 19°
2026-04-27 15:45 44.00098 4.48375 23249 ft 473 kts 20°
2026-04-27 15:45 44.03170 4.50024 23654 ft 475 kts 20°
2026-04-27 15:46 44.06256 4.51697 23949 ft 477 kts 20°
2026-04-27 15:46 44.09354 4.53356 24253 ft 478 kts 19°
2026-04-27 15:46 44.12476 4.55010 24550 ft 480 kts 20°
2026-04-27 15:46 44.15601 4.56665 24841 ft 482 kts 19°
2026-04-27 15:47 44.17678 4.57764 25033 ft 483 kts 20°
2026-04-27 15:47 44.20819 4.59428 25427 ft 482 kts 20°
2026-04-27 15:47 44.23954 4.61095 25782 ft 482 kts 20°
2026-04-27 15:47 44.27132 4.62788 26154 ft 482 kts 19°
2026-04-27 15:48 44.30256 4.64454 26570 ft 480 kts 19°
2026-04-27 15:48 44.33368 4.66118 27006 ft 478 kts 19°
2026-04-27 15:48 44.36480 4.67783 27380 ft 479 kts 19°
2026-04-27 15:49 44.42645 4.71087 28194 ft 477 kts 19°
2026-04-27 15:49 44.45737 4.72746 28648 ft 475 kts 19°
2026-04-27 15:49 44.48816 4.74400 29103 ft 473 kts 19°
2026-04-27 15:49 44.51896 4.75993 29540 ft 472 kts 15°
2026-04-27 15:50 44.55093 4.76986 29877 ft 470 kts
2026-04-27 15:50 44.58341 4.77261 30248 ft 467 kts 357°
2026-04-27 15:50 44.61557 4.76853 30638 ft 462 kts 349°
2026-04-27 15:50 44.64712 4.76126 31081 ft 459 kts 348°
2026-04-27 15:51 44.67855 4.75378 31447 ft 457 kts 348°
2026-04-27 15:51 44.70989 4.74637 31773 ft 457 kts 348°
2026-04-27 15:51 44.74121 4.73910 32130 ft 456 kts 349°
2026-04-27 15:51 44.77245 4.73199 32487 ft 454 kts 349°
2026-04-27 15:52 44.80363 4.72500 32865 ft 453 kts 349°
2026-04-27 15:52 44.83468 4.71809 33263 ft 451 kts 349°
2026-04-27 15:52 44.86563 4.71122 33598 ft 450 kts 349°
2026-04-27 15:52 44.89647 4.70436 33948 ft 448 kts 349°
2026-04-27 15:53 44.92728 4.69750 34262 ft 447 kts 348°
2026-04-27 15:53 44.95803 4.69063 34515 ft 447 kts 348°
2026-04-27 15:53 44.98874 4.68376 34773 ft 447 kts 348°
2026-04-27 15:53 45.01948 4.67687 35044 ft 447 kts 348°
2026-04-27 15:54 45.05010 4.67001 35324 ft 446 kts 348°
2026-04-27 15:54 45.08074 4.66314 35580 ft 445 kts 348°
2026-04-27 15:54 45.11134 4.65626 35812 ft 445 kts 348°
2026-04-27 15:54 45.14192 4.64938 36076 ft 444 kts 348°
2026-04-27 15:55 45.17242 4.64252 36342 ft 443 kts 348°
2026-04-27 15:55 45.20288 4.63565 36572 ft 443 kts 348°
2026-04-27 15:55 45.23329 4.62871 36795 ft 443 kts 348°
2026-04-27 15:55 45.26373 4.62174 37002 ft 444 kts 347°
2026-04-27 15:56 45.29428 4.61472 37161 ft 445 kts 347°
2026-04-27 15:56 45.32479 4.60771 37386 ft 444 kts 347°
2026-04-27 15:56 45.35526 4.60071 37665 ft 443 kts 347°
2026-04-27 15:56 45.38563 4.59373 37931 ft 442 kts 347°
2026-04-27 15:57 45.41600 4.58674 38076 ft 442 kts 347°
2026-04-27 15:57 45.47652 4.57278 38088 ft 441 kts 347°
2026-04-27 15:58 45.53757 4.55865 38104 ft 448 kts 347°
2026-04-27 15:58 45.59936 4.54434 38105 ft 452 kts 347°
2026-04-27 15:59 45.66166 4.52989 38096 ft 455 kts 347°
2026-04-27 15:59 45.72407 4.51540 38075 ft 454 kts 347°
2026-04-27 16:00 45.78627 4.50093 38076 ft 452 kts 347°
2026-04-27 16:00 45.84795 4.48656 38081 ft 451 kts 346°
2026-04-27 16:01 45.90992 4.47209 38102 ft 451 kts 346°
2026-04-27 16:01 45.97187 4.45759 38082 ft 451 kts 346°
2026-04-27 16:02 46.03377 4.44306 38090 ft 451 kts 346°
2026-04-27 16:02 46.09571 4.42849 38079 ft 451 kts 346°
2026-04-27 16:03 46.15750 4.41393 38077 ft 452 kts 346°
2026-04-27 16:03 46.21955 4.39927 38080 ft 452 kts 346°
2026-04-27 16:04 46.28155 4.38455 38076 ft 452 kts 345°
2026-04-27 16:04 46.34277 4.36521 38086 ft 450 kts 341°
2026-04-27 16:05 46.40351 4.34307 38072 ft 450 kts 341°
2026-04-27 16:05 46.46429 4.32110 38093 ft 450 kts 341°
2026-04-27 16:06 46.52521 4.29952 38090 ft 451 kts 341°
2026-04-27 16:06 46.58615 4.27807 38087 ft 451 kts 342°
2026-04-27 16:07 46.64712 4.25658 38083 ft 450 kts 341°
2026-04-27 16:07 46.70803 4.23505 38079 ft 450 kts 341°
2026-04-27 16:08 46.76890 4.21346 38083 ft 450 kts 341°
2026-04-27 16:08 46.82979 4.19181 38081 ft 450 kts 341°
2026-04-27 16:09 46.89053 4.17017 38078 ft 450 kts 341°
2026-04-27 16:09 46.98191 4.13752 38084 ft 450 kts 341°
2026-04-27 16:10 47.10223 4.08852 38088 ft 445 kts 333°
2026-04-27 16:11 47.18791 4.03618 38097 ft 445 kts 333°
2026-04-27 16:12 47.27396 3.98427 38086 ft 446 kts 333°
2026-04-27 16:13 47.35984 3.93309 38100 ft 446 kts 333°
2026-04-27 16:13 47.44614 3.88146 38096 ft 446 kts 333°
2026-04-27 16:14 47.56127 3.81226 38117 ft 447 kts 333°
2026-04-27 16:15 47.67616 3.74338 38101 ft 439 kts 333°
2026-04-27 16:16 47.78832 3.67579 38108 ft 433 kts 333°
2026-04-27 16:17 47.89957 3.60840 38109 ft 431 kts 333°
2026-04-27 16:18 48.01079 3.54060 38135 ft 433 kts 333°
2026-04-27 16:19 48.06666 3.50620 38130 ft 435 kts 333°
2026-04-27 16:20 48.17901 3.43680 38145 ft 438 kts 333°
2026-04-27 16:21 48.26380 3.38424 38133 ft 440 kts 333°
2026-04-27 16:22 48.37710 3.31370 38138 ft 441 kts 333°
2026-04-27 16:22 48.46163 3.26044 38141 ft 441 kts 332°
2026-04-27 16:23 48.54632 3.20627 38140 ft 440 kts 332°
2026-04-27 16:24 48.60272 3.17014 38139 ft 440 kts 332°
2026-04-27 16:25 48.71551 3.09766 38152 ft 441 kts 332°
2026-04-27 16:26 48.82830 3.02484 38146 ft 441 kts 332°
2026-04-27 16:27 48.93514 2.93670 38156 ft 436 kts 325°
2026-04-27 16:28 49.06625 2.81995 38169 ft 437 kts 326°
2026-04-27 16:29 49.19794 2.70354 38157 ft 437 kts 325°
2026-04-27 16:30 49.30287 2.61023 38171 ft 438 kts 325°
2026-04-27 16:31 49.43480 2.49221 38174 ft 440 kts 325°
2026-04-27 16:32 49.51373 2.42036 38191 ft 438 kts 321°
2026-04-27 16:33 49.57434 2.33929 38183 ft 433 kts 314°
2026-04-27 16:33 49.61888 2.27669 38177 ft 433 kts 314°
2026-04-27 16:34 49.66362 2.21439 38169 ft 434 kts 314°
2026-04-27 16:34 49.70849 2.15208 38184 ft 434 kts 314°
2026-04-27 16:35 49.75343 2.08954 38189 ft 434 kts 314°
2026-04-27 16:36 49.82071 1.99557 38178 ft 434 kts 314°
2026-04-27 16:36 49.86460 1.93151 38178 ft 431 kts 307°
2026-04-27 16:37 49.89688 1.85444 38177 ft 425 kts 291°
2026-04-27 16:37 49.91903 1.76973 38188 ft 424 kts 290°
2026-04-27 16:38 49.94107 1.68479 38190 ft 425 kts 290°
2026-04-27 16:38 49.96349 1.59981 38213 ft 425 kts 290°
2026-04-27 16:39 49.99147 1.51869 38209 ft 430 kts 304°
2026-04-27 16:39 50.03275 1.45097 38220 ft 435 kts 315°
2026-04-27 16:40 50.07865 1.38952 38215 ft 436 kts 316°
2026-04-27 16:40 50.12457 1.32785 38204 ft 436 kts 316°
2026-04-27 16:41 50.17030 1.26560 38217 ft 437 kts 315°
2026-04-27 16:41 50.21600 1.20296 38226 ft 437 kts 316°
2026-04-27 16:42 50.26163 1.14021 38214 ft 437 kts 316°
2026-04-27 16:42 50.30721 1.07737 38228 ft 437 kts 316°
2026-04-27 16:43 50.35283 1.01432 38091 ft 439 kts 315°
2026-04-27 16:43 50.37569 0.98266 37795 ft 438 kts 315°
2026-04-27 16:43 50.39844 0.95113 37521 ft 435 kts 315°
2026-04-27 16:43 50.42098 0.91985 37270 ft 432 kts 316°
2026-04-27 16:44 50.44346 0.88859 37022 ft 431 kts 316°
2026-04-27 16:44 50.46609 0.85774 36752 ft 431 kts 317°
2026-04-27 16:44 50.48897 0.82743 36498 ft 430 kts 317°
2026-04-27 16:44 50.51185 0.79721 36249 ft 430 kts 317°
2026-04-27 16:45 50.53469 0.76685 35999 ft 430 kts 317°
2026-04-27 16:45 50.55751 0.73638 35605 ft 430 kts 317°
2026-04-27 16:45 50.58036 0.70593 34947 ft 431 kts 317°
2026-04-27 16:45 50.60327 0.67540 34289 ft 432 kts 317°
2026-04-27 16:46 50.62627 0.64472 33509 ft 434 kts 317°
2026-04-27 16:46 50.64935 0.61388 32771 ft 435 kts 318°
2026-04-27 16:46 50.67242 0.58302 32012 ft 435 kts 318°
2026-04-27 16:46 50.69548 0.55212 31243 ft 435 kts 319°
2026-04-27 16:47 50.71848 0.52125 30458 ft 435 kts 319°
2026-04-27 16:47 50.74150 0.49033 29539 ft 434 kts 319°
2026-04-27 16:47 50.76447 0.45944 28640 ft 433 kts 320°
2026-04-27 16:47 50.78740 0.42855 27746 ft 432 kts 320°
2026-04-27 16:48 50.81022 0.39775 26826 ft 431 kts 319°
2026-04-27 16:48 50.83306 0.36686 25946 ft 432 kts 319°
2026-04-27 16:48 50.85572 0.33615 25295 ft 426 kts 319°
2026-04-27 16:49 50.90033 0.27558 23969 ft 419 kts 318°
2026-04-27 16:49 50.92240 0.24555 23202 ft 416 kts 318°
2026-04-27 16:49 50.94428 0.21574 22492 ft 412 kts 318°
2026-04-27 16:49 50.96590 0.18626 21837 ft 407 kts 317°
2026-04-27 16:50 50.98727 0.15709 21164 ft 404 kts 317°
2026-04-27 16:50 51.00845 0.12815 20511 ft 400 kts 317°
2026-04-27 16:50 51.02974 0.10033 20194 ft 390 kts 321°
2026-04-27 16:50 51.05150 0.07558 20011 ft 384 kts 323°
2026-04-27 16:51 51.07413 0.05114 19855 ft 403 kts 323°
2026-04-27 16:51 51.09775 0.02582 19660 ft 412 kts 323°
2026-04-27 16:51 51.12149 0.00019 19372 ft 412 kts 323°
2026-04-27 16:51 51.14504 -0.02549 19180 ft 410 kts 323°
2026-04-27 16:52 51.16841 -0.05123 19004 ft 407 kts 323°
2026-04-27 16:52 51.19136 -0.07665 18831 ft 406 kts 323°
2026-04-27 16:52 51.21479 -0.10272 18646 ft 405 kts 323°
2026-04-27 16:52 51.23785 -0.12843 18456 ft 405 kts 323°
2026-04-27 16:53 51.26092 -0.15421 18242 ft 404 kts 323°
2026-04-27 16:53 51.28391 -0.17992 18065 ft 403 kts 323°
2026-04-27 16:53 51.30685 -0.20559 17867 ft 403 kts 323°
2026-04-27 16:53 51.32979 -0.23130 17710 ft 402 kts 323°
2026-04-27 16:54 51.35263 -0.25691 17547 ft 401 kts 322°
2026-04-27 16:54 51.37544 -0.28251 17361 ft 399 kts 322°
2026-04-27 16:54 51.39833 -0.30750 17169 ft 399 kts 327°
2026-04-27 16:54 51.42449 -0.32303 16977 ft 406 kts 346°
2026-04-27 16:55 51.45273 -0.32502 16818 ft 410 kts
2026-04-27 16:55 51.48041 -0.31531 16623 ft 418 kts 17°
2026-04-27 16:55 51.50723 -0.29564 16420 ft 418 kts 22°
2026-04-27 16:55 51.53296 -0.27521 16230 ft 418 kts 22°
2026-04-27 16:56 51.55928 -0.25422 16037 ft 417 kts 22°
2026-04-27 16:56 51.58484 -0.23408 15855 ft 408 kts 22°
2026-04-27 16:56 51.61027 -0.21428 15728 ft 393 kts 21°
2026-04-27 16:56 51.63448 -0.19560 15555 ft 379 kts 21°
2026-04-27 16:57 51.65783 -0.17761 15382 ft 366 kts 21°
2026-04-27 16:57 51.68041 -0.16022 15233 ft 354 kts 21°
2026-04-27 16:57 51.70222 -0.14340 15102 ft 342 kts 21°
2026-04-27 16:57 51.72332 -0.12710 14980 ft 331 kts 21°
2026-04-27 16:58 51.74375 -0.11114 14857 ft 322 kts 23°
2026-04-27 16:58 51.76145 -0.08934 14723 ft 318 kts 41°
2026-04-27 16:58 51.77630 -0.06398 14628 ft 314 kts 42°
2026-04-27 16:58 51.79156 -0.03910 14496 ft 306 kts 32°
2026-04-27 16:59 51.81027 -0.02562 14129 ft 289 kts
2026-04-27 16:59 51.82920 -0.02988 13763 ft 271 kts 333°
2026-04-27 16:59 51.84487 -0.04646 13127 ft 271 kts 321°
2026-04-27 16:59 51.85944 -0.06592 12473 ft 273 kts 319°
2026-04-27 17:00 51.88358 -0.09939 11546 ft 272 kts 319°
2026-04-27 17:00 51.90254 -0.12589 10756 ft 274 kts 319°
2026-04-27 17:00 51.91718 -0.14638 10013 ft 282 kts 319°
2026-04-27 17:01 51.93215 -0.16733 9219 ft 286 kts 319°
2026-04-27 17:01 51.94729 -0.18854 8541 ft 288 kts 319°
2026-04-27 17:01 51.96231 -0.20956 8033 ft 283 kts 319°
2026-04-27 17:01 51.97714 -0.23029 7513 ft 279 kts 319°
2026-04-27 17:02 51.99004 -0.25316 7097 ft 273 kts 297°
2026-04-27 17:02 51.99396 -0.28240 6870 ft 262 kts 274°
2026-04-27 17:02 51.99490 -0.31207 6528 ft 263 kts 276°
2026-04-27 17:02 51.99652 -0.34131 6279 ft 260 kts 277°
2026-04-27 17:03 51.99605 -0.37076 5866 ft 266 kts 257°
2026-04-27 17:03 51.99049 -0.39921 5593 ft 264 kts 255°
2026-04-27 17:03 51.98510 -0.42761 5323 ft 263 kts 256°
2026-04-27 17:03 51.97862 -0.45527 5064 ft 266 kts 241°
2026-04-27 17:04 51.96718 -0.47921 5043 ft 271 kts 234°
2026-04-27 17:04 51.95531 -0.50291 5008 ft 270 kts 233°
2026-04-27 17:04 51.94363 -0.52654 5008 ft 267 kts 233°
2026-04-27 17:04 51.93218 -0.55000 5006 ft 263 kts 233°
2026-04-27 17:05 51.92101 -0.57286 4989 ft 253 kts 235°
2026-04-27 17:05 51.91029 -0.59484 4984 ft 244 kts 234°
2026-04-27 17:05 51.90057 -0.61669 4987 ft 233 kts 249°
2026-04-27 17:05 51.89718 -0.63276 4992 ft 227 kts 258°
2026-04-27 17:06 51.89185 -0.66557 4996 ft 223 kts 257°
2026-04-27 17:06 51.88768 -0.68962 5002 ft 220 kts 257°
2026-04-27 17:06 51.88355 -0.71327 4993 ft 216 kts 257°
2026-04-27 17:06 51.87862 -0.73600 4961 ft 215 kts 239°
2026-04-27 17:07 51.86693 -0.75107 4960 ft 224 kts 203°
2026-04-27 17:07 51.85093 -0.75224 4695 ft 238 kts 167°
2026-04-27 17:07 51.83503 -0.74440 4436 ft 241 kts 154°
2026-04-27 17:07 51.82296 -0.72643 4172 ft 238 kts 114°
2026-04-27 17:08 51.82024 -0.70098 3939 ft 230 kts 82°
2026-04-27 17:08 51.82261 -0.67569 3723 ft 225 kts 76°
2026-04-27 17:08 51.82620 -0.65137 3473 ft 221 kts 71°
2026-04-27 17:08 51.83022 -0.62762 3224 ft 218 kts 71°
2026-04-27 17:09 51.83419 -0.60448 3031 ft 212 kts 72°
2026-04-27 17:09 51.83796 -0.58234 2982 ft 198 kts 71°
2026-04-27 17:09 51.84163 -0.56089 2779 ft 193 kts 72°
2026-04-27 17:09 51.84513 -0.54038 2512 ft 190 kts 70°
2026-04-27 17:10 51.84863 -0.51993 2264 ft 187 kts 72°
2026-04-27 17:10 51.85201 -0.50011 2031 ft 179 kts 71°
2026-04-27 17:10 51.85521 -0.48138 1814 ft 165 kts 69°
2026-04-27 17:10 51.85816 -0.46418 1559 ft 153 kts 71°
2026-04-27 17:11 51.86094 -0.44797 1368 ft 144 kts 70°
2026-04-27 17:11 51.86635 -0.41673 1012 ft 146 kts 70°
2026-04-27 17:11 51.86898 -0.40106 802 ft 142 kts 73°
2026-04-27 17:12 51.87398 -0.37191 557 ft 121 kts 73°
2026-04-27 17:12 51.87676 -0.35666 964 ft 161 kts 71°
2026-04-27 17:12 51.88029 -0.33777 1261 ft 175 kts 70°
2026-04-27 17:13 51.88372 -0.31886 1191 ft 172 kts 72°
2026-04-27 17:13 51.88696 -0.29978 1390 ft 189 kts 71°
2026-04-27 17:13 51.89047 -0.27810 1995 ft 202 kts 72°
2026-04-27 17:13 51.89356 -0.25583 2627 ft 206 kts 73°
2026-04-27 17:14 51.89659 -0.23316 2969 ft 209 kts 73°
2026-04-27 17:14 51.89971 -0.21021 2983 ft 209 kts 74°
2026-04-27 17:14 51.89984 -0.18644 2994 ft 221 kts 106°
2026-04-27 17:14 51.89022 -0.16691 3012 ft 231 kts 148°
2026-04-27 17:15 51.87996 -0.16137 2984 ft 233 kts 177°
2026-04-27 17:15 51.86489 -0.16771 3013 ft 230 kts 219°
2026-04-27 17:15 51.85508 -0.18902 3039 ft 250 kts 251°
2026-04-27 17:15 51.84899 -0.21620 3019 ft 265 kts 253°
2026-04-27 17:16 51.84296 -0.24492 2997 ft 265 kts 256°
2026-04-27 17:16 51.83797 -0.27324 3002 ft 265 kts 256°
2026-04-27 17:16 51.83312 -0.30227 2988 ft 263 kts 258°
2026-04-27 17:16 51.82837 -0.33068 2991 ft 261 kts 257°
2026-04-27 17:17 51.82369 -0.35902 3007 ft 260 kts 258°
2026-04-27 17:17 51.81897 -0.38724 2997 ft 260 kts 257°
2026-04-27 17:17 51.81432 -0.41502 3017 ft 260 kts 258°
2026-04-27 17:18 51.80427 -0.47170 2998 ft 263 kts 257°
2026-04-27 17:18 51.79928 -0.50007 2989 ft 262 kts 256°
2026-04-27 17:18 51.79435 -0.52841 2994 ft 261 kts 256°
2026-04-27 17:18 51.78944 -0.55665 3006 ft 261 kts 257°
2026-04-27 17:19 51.78472 -0.58445 2996 ft 250 kts 261°
2026-04-27 17:19 51.78616 -0.61114 3006 ft 234 kts 298°
2026-04-27 17:19 51.79696 -0.62891 2985 ft 217 kts 335°
2026-04-27 17:19 51.81096 -0.63658 3005 ft 213 kts 350°
2026-04-27 17:20 51.82503 -0.63405 2970 ft 201 kts 27°
2026-04-27 17:20 51.83369 -0.61723 2812 ft 199 kts 72°
2026-04-27 17:20 51.83522 -0.59556 2836 ft 193 kts 75°
2026-04-27 17:20 51.83956 -0.57602 2858 ft 178 kts 65°
2026-04-27 17:21 51.84274 -0.55697 2723 ft 172 kts 74°
2026-04-27 17:21 51.84551 -0.53856 2503 ft 165 kts 71°
2026-04-27 17:21 51.84847 -0.52087 2318 ft 157 kts 71°
2026-04-27 17:21 51.85133 -0.50402 2078 ft 151 kts 71°
2026-04-27 17:22 51.85410 -0.48791 1859 ft 150 kts 69°
2026-04-27 17:22 51.85690 -0.47164 1663 ft 150 kts 69°
2026-04-27 17:22 51.85961 -0.45580 1462 ft 144 kts 70°
2026-04-27 17:22 51.86226 -0.44028 1300 ft 144 kts 68°
2026-04-27 17:23 51.86494 -0.42470 1082 ft 140 kts 69°
2026-04-27 17:23 51.86762 -0.40951 885 ft 140 kts 72°
2026-04-27 17:23 51.87017 -0.39417 717 ft 142 kts 72°
2026-04-27 17:23 51.87271 -0.37910 548 ft 132 kts 71°
2026-04-27 17:24 51.87495 -0.36663 545 ft 86 kts 74°
2026-04-27 17:24 51.87607 -0.36017 523 ft 33 kts 73°
2026-04-27 17:24 51.87712 -0.35929 527 ft 18 kts 345°
2026-04-27 17:24 51.87738 -0.35942 528 ft 0 kts 339°
2026-04-27 17:25 51.87752 -0.35952 529 ft 5 kts 333°
2026-04-27 17:26 51.87785 -0.36035 531 ft 13 kts 278°
2026-04-27 17:26 51.87760 -0.36221 531 ft 22 kts 255°
2026-04-27 17:26 51.87711 -0.36502 531 ft 30 kts 254°
2026-04-27 17:26 51.87653 -0.36838 533 ft 31 kts 254°
2026-04-27 17:27 51.87618 -0.37041 533 ft 15 kts 255°
2026-04-27 17:27 51.87593 -0.37187 533 ft 13 kts 253°
2026-04-27 17:27 51.87577 -0.37327 533 ft 13 kts 275°
2026-04-27 17:27 51.87619 -0.37445 535 ft 12 kts 319°
2026-04-27 17:28 51.87691 -0.37536 533 ft 15 kts 301°
2026-04-27 17:28 51.87742 -0.37705 533 ft 19 kts 294°
2026-04-27 17:28 51.87865 -0.37998 533 ft 9 kts
2026-04-27 17:29 51.87875 -0.37981 533 ft 1 kts 59°
2026-04-27 17:29 51.87880 -0.37968 533 ft 2 kts 62°
2026-04-27 17:29 51.87887 -0.37935 533 ft 3 kts 72°
2026-04-27 17:29 51.87890 -0.37921 533 ft 0 kts 72°